[[{"header":{"parameterUnit":"m.s-1","parameterCategory":1,"la1":30.2991,"la2":30.254,"lo1":-89.0895,"lo2":-89.0444,"dy":0.0017,"dx":0.0017,"nx":28,"ny":28,"refTime":"2025-11-25T09:00:00:Z","depth":0,"parameterNumber":2,"parameterNumberName":"U-component_of_WINDS"},"data":[0,0,0,0,0,0,0,0,0,0,0,0,0,0,0,0,0,0,0,0,0,0,0,0,0,0,0,0,0,0,0,0,0,0,0,0,0,0,0,0,0,0,0,0,0,0,0,0,0,0,0,0,0,0,0,0,0,0,-1.2071,-1.2071,0,-1.2032,-1.2032,-1.2031,-1.2018,-1.2019,-1.2019,-1.2019,-1.1979,-1.1978,-1.1977,0,0,0,0,0,0,0,0,0,0,0,0,0,-1.2136,-1.2135,-1.2072,-1.2071,-1.2071,-1.2032,-1.2032,-1.2031,-1.2018,-1.2019,-1.2019,-1.2019,-1.198,-1.1978,-1.1977,0,0,0,0,0,0,0,0,0,0,0,0,0,-1.2104,-1.2135,-1.2072,-1.206,-1.2058,-1.2032,-1.2032,-1.2031,-1.2018,-1.2019,-1.2019,-1.2019,-1.198,-1.1979,-1.1977,-1.196,0,0,-1.1971,-1.197,0,0,0,0,0,0,0,0,-1.2105,-1.2101,-1.2062,-1.206,-1.2059,-1.203,-1.204,-1.2007,-1.2018,-1.2033,-1.2019,-1.2019,-1.1996,-1.1993,-1.1985,-1.1959,-1.1957,-1.1971,-1.197,-1.1969,-1.1969,0,0,0,0,0,0,0,-1.2108,-1.2103,-1.2056,-1.2061,-1.2059,-1.2056,-1.2052,-1.2034,-1.2014,-1.2032,-1.2031,-1.2027,-1.1995,-1.1987,-1.1984,-1.1956,-1.1971,-1.197,-1.1968,-1.1968,-1.1914,-1.1914,0,0,0,0,0,0,-1.2112,-1.2105,-1.2057,-1.2055,-1.2083,-1.2055,-1.205,-1.2039,-1.2014,-1.2011,-1.2026,-1.2026,-1.199,-1.1986,-1.1983,-1.1962,-1.1969,-1.1968,-1.1966,-1.1914,-1.1914,-1.1914,0,0,0,0,0,0,-1.2113,-1.2108,-1.2059,-1.2079,-1.2073,-1.2054,-1.2042,-1.2038,-1.203,-1.201,-1.2006,-1.2021,-1.199,-1.1985,-1.1966,-1.196,-1.1967,-1.1965,-1.1915,-1.1914,-1.1914,-1.1919,0,0,0,0,0,0,-1.2115,-1.2108,-1.2102,-1.2079,-1.2072,-1.2042,-1.2041,-1.2037,-1.2027,-1.2026,-1.2004,-1.2001,-1.199,-1.1969,-1.1964,-1.1958,-1.1964,-1.1915,-1.1915,-1.1914,-1.192,-1.1919,-1.1919,0,0,0,0,0,-1.2118,-1.2105,-1.2102,-1.2096,-1.2063,-1.2042,-1.2038,-1.2025,-1.2026,-1.202,-1.2007,-1.2001,-1.1962,-1.1967,-1.1962,-1.1954,-1.1916,-1.1915,-1.1914,-1.192,-1.1919,-1.1919,0,0,0,0,0,0,-1.2128,-1.2102,-1.2098,-1.2078,-1.2062,-1.204,-1.2031,-1.2025,-1.2009,-1.2009,-1.1995,-1.199,-1.1972,-1.1961,-1.1968,-1.1937,-1.1938,-1.1937,-1.1945,-1.1944,-1.1943,-1.1946,-1.1962,0,0,0,0,0,-1.2128,-1.2112,-1.2091,-1.2075,-1.2067,-1.2051,-1.2041,-1.2033,-1.2016,-1.201,-1.1995,-1.198,-1.1964,-1.1953,-1.1937,-1.1918,-1.1913,-1.1911,-1.191,-1.191,-1.1908,-1.1897,-1.1896,-1.1911,-1.1911,-1.1911,0,0,-1.2127,-1.2111,-1.2102,-1.2077,-1.2064,-1.2048,-1.2045,-1.2029,-1.2017,-1.2007,-1.1988,-1.1977,-1.1958,-1.1939,-1.193,-1.193,-1.1903,-1.1909,-1.1909,-1.1907,-1.1896,-1.1895,-1.1894,-1.1911,-1.1911,-1.1911,0,0,-1.2118,-1.2105,-1.209,-1.2077,-1.2057,-1.2046,-1.2043,-1.2021,-1.2013,-1.1994,-1.1986,-1.1972,-1.1945,-1.1932,-1.1922,-1.1908,-1.1902,-1.1903,-1.19,-1.189,-1.1888,-1.1887,-1.1882,-1.188,-1.1902,-1.1902,-1.1902,0,-1.212,-1.2096,-1.2083,-1.2067,-1.2056,-1.2046,-1.2031,-1.2019,-1.1995,-1.1988,-1.1988,-1.1953,-1.1941,-1.1918,-1.1914,-1.1907,-1.1902,-1.1905,-1.189,-1.1888,-1.1887,-1.1882,-1.188,-1.1902,-1.1902,-1.1902,-1.1902,0,-1.2099,-1.2083,-1.2073,-1.205,-1.2038,-1.2022,-1.2007,-1.1997,-1.199,-1.1979,-1.1959,-1.1943,-1.1923,-1.1918,-1.1911,-1.1894,-1.1894,-1.1892,-1.1893,-1.1886,-1.1881,-1.1879,-1.1902,-1.1902,-1.1902,-1.1902,0,0,-1.2095,-1.2065,-1.2061,-1.205,-1.2028,-1.2015,-1.1999,-1.198,-1.1971,-1.1955,-1.1941,-1.1919,-1.1917,-1.1905,-1.1897,-1.1888,-1.1877,-1.1887,-1.1886,-1.1885,-1.1857,-1.1858,-1.1856,-1.1874,-1.1873,-1.1873,-1.1858,0,-1.2082,-1.2053,-1.2041,-1.2017,-1.2002,-1.1992,-1.1979,-1.1963,-1.1953,-1.1938,-1.1927,-1.1911,-1.191,-1.1903,-1.1893,-1.1881,-1.1871,-1.1882,-1.1861,-1.186,-1.1865,-1.1853,-1.1854,-1.1841,-1.1856,-1.1856,-1.1856,0,-1.2064,-1.2047,-1.2022,-1.2001,-1.1994,-1.1982,-1.1963,-1.1949,-1.1932,-1.1925,-1.1912,-1.1904,-1.1888,-1.189,-1.1867,-1.1874,-1.1865,-1.1858,-1.1857,-1.1854,-1.1857,-1.1849,-1.1836,-1.1834,-1.1852,-1.1853,-1.1853,0,-1.2062,-1.2034,-1.2015,-1.2006,-1.1981,-1.1973,-1.1962,-1.1945,-1.1934,-1.1918,-1.1911,-1.1893,-1.1883,-1.187,-1.1858,-1.1861,-1.1836,-1.1837,-1.1829,-1.1829,-1.1823,-1.1824,-1.1808,-1.1819,-1.1819,-1.1819,-1.1819,0,-1.2049,-1.2034,-1.2014,-1.2002,-1.1984,-1.1971,-1.1954,-1.1943,-1.1928,-1.1914,-1.1905,-1.1893,-1.1878,-1.1863,-1.1854,-1.1836,-1.1832,-1.1825,-1.1823,-1.1826,-1.1826,-1.1819,-1.1819,-1.1819,-1.1819,-1.1819,-1.1819,0,-1.2044,-1.203,-1.2008,-1.1987,-1.1981,-1.1969,-1.1951,-1.1939,-1.1928,-1.191,-1.1906,-1.1889,-1.1871,-1.1858,-1.1835,-1.1829,-1.181,-1.1807,-1.1815,-1.1814,-1.1806,-1.1807,-1.1784,-1.178,-1.1795,-1.1795,-1.1795,0,-1.2036,-1.2024,-1.2001,-1.1991,-1.198,-1.1964,-1.1952,-1.1939,-1.1927,-1.1907,-1.1898,-1.1879,-1.1864,-1.1836,-1.1822,-1.1805,-1.1802,-1.1795,-1.1799,-1.1802,-1.1801,-1.1801,-1.18,-1.1794,-1.1794,-1.1794,-1.1794,0,-1.2023,-1.2017,-1.2001,-1.1982,-1.1968,-1.1953,-1.1937,-1.193,-1.1914,-1.1901,-1.1883,-1.1871,-1.1847,-1.1829,-1.1811,-1.18,-1.1794,-1.1793,-1.179,-1.1792,-1.1797,-1.1794,-1.1813,-1.1794,-1.1794,-1.1794,-1.1794,-1.1794,-1.2016,-1.2005,-1.1986,-1.1968,-1.1955,-1.1941,-1.1928,-1.1916,-1.19,-1.1879,-1.1873,-1.1854,-1.1837,-1.1811,-1.1801,-1.1786,-1.1786,-1.1782,-1.178,-1.1779,-1.1779,-1.18,-1.1783,-1.1783,-1.1783,-1.1783,-1.1783,0,-1.2002,-1.199,-1.1973,-1.1951,-1.1937,-1.1933,-1.1916,-1.1904,-1.1887,-1.1872,-1.1857,-1.1835,-1.1818,-1.1803,-1.1784,-1.1775,-1.1772,-1.1771,-1.1771,-1.1769,-1.1781,-1.1785,-1.1774,-1.1774,-1.1774,-1.1774,-1.1774,-1.1774,-1.1993,-1.1973,-1.1964,-1.1938,-1.1926,-1.1906,-1.1897,-1.1884,-1.1871,-1.1848,-1.1833,-1.1823,-1.1807,-1.1788,-1.1772,-1.1768,-1.1761,-1.176,-1.1756,-1.1767,-1.1768,-1.1769,-1.1772,-1.1759,-1.1759,-1.1745,-1.1745,-1.1745]},{"header":{"parameterUnit":"m.s-1","parameterCategory":1,"la1":30.2991,"la2":30.254,"lo1":-89.0895,"lo2":-89.0444,"dy":0.0017,"dx":0.0017,"nx":28,"ny":28,"refTime":"2025-11-25T09:00:00:Z","depth":0,"parameterNumber":3,"parameterNumberName":"V-component_of_WINDS"},"data":[0,0,0,0,0,0,0,0,0,0,0,0,0,0,0,0,0,0,0,0,0,0,0,0,0,0,0,0,0,0,0,0,0,0,0,0,0,0,0,0,0,0,0,0,0,0,0,0,0,0,0,0,0,0,0,0,0,0,6.5948,6.5949,0,6.6019,6.602,6.6021,6.5968,6.5966,6.5964,6.5961,6.603,6.6034,6.6038,0,0,0,0,0,0,0,0,0,0,0,0,0,6.5762,6.5766,6.5948,6.5949,6.595,6.6019,6.602,6.6021,6.5969,6.5966,6.5963,6.596,6.6029,6.6033,6.6038,0,0,0,0,0,0,0,0,0,0,0,0,0,6.5839,6.5767,6.5948,6.5932,6.5932,6.6019,6.602,6.6021,6.5969,6.5966,6.5962,6.5959,6.6027,6.6033,6.6039,6.6144,0,0,6.6057,6.606,0,0,0,0,0,0,0,0,6.5835,6.5846,6.5934,6.5934,6.5933,6.5982,6.598,6.6063,6.597,6.5955,6.5961,6.5957,6.6016,6.6023,6.6044,6.6148,6.6151,6.6058,6.6061,6.6064,6.6065,0,0,0,0,0,0,0,6.583,6.5843,6.5976,6.5935,6.5935,6.592,6.5927,6.5995,6.6004,6.5956,6.5952,6.5962,6.6015,6.6038,6.6045,6.6152,6.6057,6.6063,6.6066,6.6069,6.6346,6.635,0,0,0,0,0,0,6.5827,6.5839,6.5974,6.5978,6.5875,6.5926,6.5934,6.5969,6.6003,6.6005,6.5964,6.5959,6.603,6.6038,6.6047,6.6174,6.6064,6.6069,6.6073,6.6343,6.6347,6.6351,0,0,0,0,0,0,6.5823,6.5839,6.5971,6.5908,6.5923,6.5933,6.5973,6.5973,6.5995,6.601,6.601,6.5987,6.6027,6.6039,6.6121,6.6176,6.6072,6.6077,6.6338,6.6344,6.6349,6.6429,0,0,0,0,0,0,6.5818,6.5838,6.588,6.5909,6.5927,6.6046,6.5976,6.5976,6.6006,6.6,6.603,6.6032,6.6025,6.6113,6.6127,6.6182,6.6082,6.6333,6.6341,6.6347,6.6422,6.6437,6.645,0,0,0,0,0,6.5811,6.5898,6.5882,6.5898,6.5979,6.6049,6.6059,6.6051,6.6011,6.6052,6.6061,6.6031,6.6167,6.6121,6.6137,6.6195,6.633,6.6339,6.6347,6.6415,6.6434,6.6449,0,0,0,0,0,0,6.5873,6.5902,6.5884,6.5983,6.6014,6.604,6.6092,6.607,6.6112,6.6104,6.609,6.6098,6.6185,6.6197,6.6146,6.6299,6.6242,6.6254,6.6288,6.6306,6.632,6.6316,6.6087,0,0,0,0,0,6.5898,6.5954,6.5975,6.606,6.6077,6.6082,6.6112,6.6103,6.6134,6.6146,6.6161,6.6191,6.6241,6.6274,6.632,6.6422,6.6428,6.647,6.6484,6.6495,6.6506,6.6562,6.6581,6.6379,6.6379,6.6379,0,0,6.5951,6.5973,6.6009,6.6074,6.6097,6.6154,6.6093,6.6156,6.6198,6.6155,6.6235,6.6247,6.6279,6.6373,6.6414,6.6386,6.6563,6.6506,6.6515,6.652,6.6573,6.6592,6.6609,6.6385,6.6384,6.6383,0,0,6.6076,6.6099,6.6173,6.6198,6.6234,6.6237,6.6254,6.6283,6.629,6.637,6.634,6.6388,6.6474,6.6499,6.6522,6.6657,6.6632,6.6672,6.6747,6.6801,6.6817,6.6831,6.6881,6.6899,6.6683,6.6683,6.6683,0,6.6137,6.6224,6.6214,6.628,6.6309,6.6274,6.6349,6.6372,6.6421,6.6441,6.6409,6.6516,6.6535,6.6634,6.6668,6.6687,6.6707,6.667,6.6816,6.683,6.6843,6.689,6.6909,6.6688,6.6687,6.6687,6.6686,0,6.6297,6.6357,6.6412,6.6463,6.6498,6.6568,6.6567,6.6603,6.6591,6.6597,6.6678,6.67,6.6751,6.6773,6.676,6.687,6.6852,6.6818,6.676,6.6867,6.6911,6.6929,6.6695,6.6693,6.6692,6.669,0,0,6.6465,6.6509,6.653,6.6553,6.659,6.6636,6.6703,6.6754,6.6786,6.682,6.6877,6.695,6.6919,6.6946,6.6935,6.6983,6.7091,6.6943,6.6944,6.6972,6.7214,6.7241,6.7262,6.7073,6.7076,6.7079,6.7212,0,6.6594,6.6715,6.6707,6.682,6.6876,6.6843,6.6902,6.693,6.6937,6.6984,6.699,6.7043,6.6997,6.7014,6.7059,6.7068,6.7139,6.7058,6.7125,6.7128,6.7121,6.7285,6.7314,6.7439,6.7229,6.7232,6.7234,0,6.6761,6.6804,6.6923,6.6952,6.6975,6.7029,6.7075,6.7121,6.7152,6.7153,6.7184,6.7166,6.7233,6.7172,6.7264,6.7209,6.7236,6.7244,6.7249,6.7256,6.7189,6.7299,6.7478,6.7498,6.7261,6.7259,6.7257,0,6.6874,6.696,6.7043,6.7063,6.71,6.7138,6.7155,6.7182,6.7214,6.7253,6.7273,6.732,6.7345,6.7381,6.7376,6.7332,6.747,6.7409,6.7473,6.7474,6.7506,6.7504,6.7694,6.752,6.7519,6.7519,6.7519,0,6.7021,6.7095,6.7095,6.7146,6.7228,6.7218,6.7299,6.7311,6.7336,6.7388,6.7361,6.741,6.7398,6.7447,6.7442,6.752,6.7531,6.7534,6.7533,6.7538,6.7538,6.7557,6.7549,6.7524,6.7523,6.7522,6.7521,0,6.7162,6.7165,6.7253,6.728,6.7289,6.7348,6.7371,6.7419,6.7423,6.7489,6.7503,6.751,6.7565,6.7563,6.7625,6.7622,6.7718,6.7705,6.7709,6.7707,6.7773,6.7767,6.7983,6.8011,6.7817,6.7818,6.782,0,6.7256,6.7313,6.7347,6.7381,6.7401,6.7455,6.7487,6.7479,6.7513,6.7553,6.7596,6.7649,6.7692,6.7782,6.7791,6.7838,6.7827,6.7899,6.7834,6.7838,6.7831,6.7828,6.7835,6.7913,6.7915,6.7917,6.7918,0,6.7424,6.7423,6.7472,6.7521,6.7561,6.7599,6.7634,6.7662,6.7657,6.7697,6.7755,6.7788,6.7852,6.7905,6.7951,6.7966,6.7942,6.7939,6.7956,6.7964,6.7964,6.7967,6.7746,6.7934,6.7933,6.7931,6.7931,6.793,6.7546,6.7596,6.7628,6.7683,6.7709,6.7742,6.7789,6.7799,6.7847,6.7901,6.7892,6.7956,6.7985,6.8044,6.8063,6.8113,6.8087,6.8112,6.8119,6.8126,6.8135,6.7955,6.8121,6.812,6.812,6.8119,6.8119,0,6.7714,6.7733,6.7784,6.7835,6.7878,6.7852,6.7889,6.7927,6.7985,6.8015,6.8057,6.8123,6.8175,6.8188,6.8237,6.8275,6.8265,6.8288,6.8286,6.829,6.8154,6.8135,6.8295,6.8295,6.8295,6.8295,6.8295,6.8295,6.7807,6.789,6.7893,6.7988,6.8005,6.807,6.8094,6.8124,6.8148,6.8224,6.8267,6.8276,6.8299,6.835,6.8396,6.8398,6.8418,6.8446,6.8445,6.8317,6.83,6.8283,6.8265,6.845,6.845,6.8577,6.8578,6.8579]}]]